EW6659 Weather Reports


time (UTC)temp
C
wind
direction
speed
KPH
gust
KPH
rain 1hr
cm
rain 24hr
cm
rain mn
cm
humidity
%
barometer
mb
20260504050106 11 225 0.0 0.0 0.00 0.00 0.00 54 1007.6
20260504044556 11 134 0.0 0.0 0.00 0.00 0.00 55 1007.6
20260504043103 11 235 0.0 0.0 0.00 0.00 0.00 55 1007.7
20260504041553 11 214 0.0 0.0 0.00 0.00 0.00 55 1007.7
20260504040050 10 138 0.0 0.0 0.00 0.00 0.00 55 1007.8
20260504034554 10 234 0.0 0.0 0.00 0.00 0.00 55 1007.9
20260504033054 10 236 0.0 0.0 0.00 0.00 0.00 55 1008.0
20260504031542 10 236 0.0 0.0 0.00 0.00 0.00 55 1008.0
20260504030033 10 241 0.0 0.0 0.00 0.00 0.00 55 1008.1
20260504024535 10 117 0.0 0.0 0.00 0.00 0.00 55 1008.2
20260504023024 10 236 0.0 0.0 0.00 0.00 0.00 55 1008.6
20260504021519 11 246 0.0 0.0 0.00 0.00 0.00 55 1008.9
20260504020015 11 290 1.6 20.9 0.00 0.00 0.00 55 1009.2
20260504014511 12 255 3.2 20.9 0.00 0.00 0.00 51 1009.4
20260504013009 12 318 0.0 12.9 0.00 0.00 0.00 47 1008.9
20260504011502 13 305 0.0 19.3 0.00 0.00 0.00 46 1008.6
20260504010100 13 238 3.2 19.3 0.00 0.00 0.00 44 1008.7
20260504004600 13 240 0.0 9.7 0.00 0.00 0.00 44 1008.4
20260504003055 12 330 0.0 0.0 0.00 0.00 0.00 46 1008.1
20260504001551 12 217 0.0 0.0 0.00 0.00 0.00 46 1008.0
20260504000111 12 244 0.0 0.0 0.00 0.00 0.00 47 1007.8
20260503234542 12 260 0.0 0.0 0.00 0.00 0.00 48 1007.9
20260503233040 12 321 0.0 20.9 0.00 0.00 0.00 45 1008.4
20260503231533 12 323 0.0 14.5 0.00 0.00 0.00 44 1008.6
20260503230029 13 285 0.0 0.0 0.00 0.00 0.00 42 1008.0
20260503224529 13 290 0.0 0.0 0.00 0.00 0.00 41 1007.9
20260503223022 13 248 0.0 1.6 0.00 0.00 0.00 39 1007.9
20260503221516 13 311 0.0 3.2 0.00 0.00 0.00 38 1007.8
20260503220019 13 259 0.0 0.0 0.00 0.00 0.00 39 1008.1
20260503214510 13 249 0.0 1.6 0.00 0.00 0.00 40 1008.1
20260503213003 13 323 0.0 4.8 0.00 0.00 0.00 40 1008.1
20260503211605 13 254 0.0 3.2 0.00 0.00 0.00 40 1008.1
20260503210054 13 217 0.0 1.6 0.00 0.00 0.00 41 1008.3
20260503204554 12 311 0.0 1.6 0.00 0.00 0.00 43 1008.4
20260503203046 12 259 1.6 14.5 0.00 0.00 0.00 42 1008.5
20260503201541 12 219 0.0 8.0 0.00 0.00 0.00 42 1008.6
20260503200037 12 279 0.0 3.2 0.00 0.00 0.00 42 1008.8
20260503194532 12 314 0.0 14.5 0.00 0.00 0.00 42 1008.9
20260503193028 12 326 0.0 0.0 0.00 0.00 0.00 41 1009.0
20260503191523 12 241 0.0 14.5 0.00 0.00 0.00 40 1009.1
20260503190019 12 338 0.0 9.7 0.00 0.00 0.00 38 1009.1
20260503184518 13 232 0.0 19.3 0.00 0.00 0.00 38 1009.3
20260503183010 12 27 0.0 30.6 0.00 0.00 0.00 34 1009.5
20260503181506 12 326 0.0 20.9 0.00 0.00 0.00 36 1009.7
20260503180001 12 266 0.0 9.7 0.00 0.00 0.00 35 1010.0
20260503174558 12 321 0.0 8.0 0.00 0.00 0.00 36 1010.1
20260503173054 11 324 0.0 14.5 0.00 0.00 0.00 35 1010.2
20260503171608 11 319 0.0 22.5 0.00 0.00 0.00 34 1010.4
20260503081509 4 320 0.0 0.0 0.00 0.00 0.00 46 1011.8